When you browse on this site, cookies collect data to enhance your experience and personalize the content and advertising you see.
Visit our Privacy Policy to learn more. By continuing to use the site, you agree to this use of cookies and data.
  • în România
  • Lista ţărilor
  • Pe 7 zile
  • Temperatura apei
  • Meteo pe hartă
  • Widget-uri
  • user-avatar
    Intrare

    Meteo pe oră la Stepanakert

    Astăzi, 23 Octombrie, Miercuri

    Timp Temperatura Precipitaţii Vânt Presiune Umiditate
    00:00 +11°C° 0 mm 0 m/s 696 mmHg 74%
    01:00 +11°C° 0 mm 0 m/s 696 mmHg 75%
    02:00 +11°C° 0 mm 0 m/s 696 mmHg 75%
    03:00 +11°C° 0 mm 0 m/s 696 mmHg 75%
    04:00 +11°C° 0 mm 0 m/s 695 mmHg 76%
    05:00 +10°C° 0 mm 0 m/s 695 mmHg 77%
    06:00 +10°C° 0 mm 0 m/s 695 mmHg 78%
    07:00 +11°C° 0 mm 0 m/s 696 mmHg 73%
    08:00 +14°C° 0 mm 1 m/s 696 mmHg 67%
    09:00 +15°C° 0 mm 1 m/s 696 mmHg 62%
    10:00 +16°C° 0 mm 1 m/s 696 mmHg 61%
    11:00 +17°C° 0 mm 2 m/s 696 mmHg 59%
    12:00 +17°C° 0 mm 2 m/s 696 mmHg 58%
    13:00 +17°C° 0 mm 2 m/s 696 mmHg 58%
    14:00 +17°C° 0 mm 2 m/s 695 mmHg 58%
    15:00 +18°C° 0 mm 2 m/s 695 mmHg 58%
    16:00 +16°C° 0 mm 2 m/s 695 mmHg 63%
    17:00 +15°C° 0 mm 1 m/s 695 mmHg 67%
    18:00 +14°C° 0 mm 1 m/s 695 mmHg 72%
    19:00 +14°C° 0 mm 1 m/s 695 mmHg 74%
    20:00 +13°C° 0 mm 1 m/s 696 mmHg 77%
    21:00 +12°C° 0 mm 0 m/s 696 mmHg 79%
    22:00 +11°C° 0 mm 0 m/s 696 mmHg 80%
    23:00 +11°C° 0 mm 0 m/s 696 mmHg 81%

    Mâine, 24 Octombrie, Joi

    Timp Temperatura Precipitaţii Vânt Presiune Umiditate
    00:00 +11°C° 0 mm 0 m/s 696 mmHg 82%
    01:00 +11°C° 0 mm 0 m/s 696 mmHg 83%
    02:00 +10°C° 0 mm 0 m/s 695 mmHg 85%
    03:00 +10°C° 0 mm 0 m/s 695 mmHg 86%
    04:00 +10°C° 0 mm 0 m/s 695 mmHg 86%
    05:00 +10°C° 0 mm 0 m/s 696 mmHg 87%
    06:00 +10°C° 0 mm 0 m/s 696 mmHg 87%
    07:00 +12°C° 0 mm 1 m/s 696 mmHg 81%
    08:00 +14°C° 0 mm 1 m/s 696 mmHg 75%
    09:00 +15°C° 0 mm 1 m/s 697 mmHg 69%
    10:00 +16°C° 0 mm 1 m/s 696 mmHg 66%
    11:00 +17°C° 0 mm 2 m/s 696 mmHg 64%
    12:00 +17°C° 0 mm 2 m/s 696 mmHg 61%
    13:00 +17°C° 0 mm 2 m/s 695 mmHg 63%
    14:00 +17°C° 0 mm 2 m/s 695 mmHg 64%
    15:00 +17°C° 0 mm 2 m/s 695 mmHg 65%
    16:00 +16°C° 0 mm 2 m/s 695 mmHg 70%
    17:00 +15°C° 0 mm 1 m/s 695 mmHg 74%
    18:00 +15°C° 0 mm 1 m/s 695 mmHg 79%
    19:00 +14°C° 0 mm 1 m/s 695 mmHg 81%
    20:00 +13°C° 0 mm 0 m/s 695 mmHg 83%
    21:00 +12°C° 0 mm 0 m/s 695 mmHg 85%
    22:00 +12°C° 0 mm 0 m/s 695 mmHg 85%
    23:00 +12°C° 0 mm 0 m/s 695 mmHg 85%

    Poimâine, 25 Octombrie, Vineri

    Timp Temperatura Precipitaţii Vânt Presiune Umiditate
    00:00 +12°C° 0 mm 0 m/s 695 mmHg 85%
    01:00 +12°C° 0 mm 0 m/s 695 mmHg 86%
    02:00 +12°C° 0 mm 0 m/s 695 mmHg 86%
    03:00 +12°C° 0 mm 0 m/s 694 mmHg 86%
    04:00 +11°C° 0 mm 0 m/s 694 mmHg 87%
    05:00 +11°C° 0 mm 0 m/s 694 mmHg 88%
    06:00 +10°C° 0 mm 0 m/s 694 mmHg 89%
    07:00 +12°C° 0 mm 0 m/s 694 mmHg 83%
    08:00 +14°C° 0 mm 1 m/s 695 mmHg 77%
    09:00 +16°C° 0 mm 1 m/s 695 mmHg 71%
    10:00 +16°C° 0 mm 1 m/s 695 mmHg 68%
    11:00 +17°C° 0 mm 2 m/s 694 mmHg 66%
    12:00 +18°C° 0 mm 2 m/s 694 mmHg 63%
    13:00 +18°C° 0 mm 2 m/s 694 mmHg 64%
    14:00 +18°C° 0 mm 2 m/s 694 mmHg 66%
    15:00 +18°C° 0 mm 2 m/s 693 mmHg 67%
    16:00 +18°C° 0 mm 1 m/s 693 mmHg 72%
    17:00 +16°C° 0 mm 1 m/s 693 mmHg 77%
    18:00 +14°C° 0 mm 0 m/s 693 mmHg 82%
    19:00 +13°C° 0 mm 0 m/s 693 mmHg 83%
    20:00 +13°C° 0 mm 0 m/s 694 mmHg 84%
    21:00 +13°C° 0 mm 0 m/s 694 mmHg 85%
    22:00 +12°C° 0 mm 0 m/s 694 mmHg 85%
    23:00 +12°C° 0 mm 0 m/s 693 mmHg 85%

    26 Octombrie, Sâmbătă

    Timp Temperatura Precipitaţii Vânt Presiune Umiditate
    00:00 +12°C° 0 mm 0 m/s 693 mmHg 85%
    01:00 +12°C° 0 mm 0 m/s 693 mmHg 86%
    02:00 +12°C° 0 mm 0 m/s 693 mmHg 87%
    03:00 +12°C° 0 mm 1 m/s 693 mmHg 87%
    04:00 +11°C° 0 mm 0 m/s 693 mmHg 88%
    05:00 +11°C° 0 mm 0 m/s 693 mmHg 88%
    06:00 +11°C° 0 mm 0 m/s 693 mmHg 89%
    07:00 +12°C° 0 mm 0 m/s 694 mmHg 86%
    08:00 +13°C° 0 mm 0 m/s 694 mmHg 84%
    09:00 +13°C° 0 mm 0 m/s 694 mmHg 82%
    10:00 +15°C° 0.1 mm 1 m/s 694 mmHg 76%
    11:00 +18°C° 0.1 mm 1 m/s 694 mmHg 70%
    12:00 +18°C° 0.1 mm 2 m/s 694 mmHg 63%
    13:00 +17°C° 0.2 mm 2 m/s 694 mmHg 66%
    14:00 +17°C° 0.2 mm 2 m/s 693 mmHg 69%
    15:00 +17°C° 0.2 mm 2 m/s 693 mmHg 72%
    16:00 +16°C° 0.2 mm 2 m/s 693 mmHg 78%
    17:00 +15°C° 0.2 mm 1 m/s 693 mmHg 83%
    18:00 +14°C° 0.2 mm 1 m/s 693 mmHg 88%
    19:00 +13°C° 0.1 mm 0 m/s 693 mmHg 89%
    20:00 +13°C° 0.1 mm 0 m/s 693 mmHg 90%
    21:00 +12°C° 0.1 mm 0 m/s 693 mmHg 90%
    22:00 +12°C° 0 mm 0 m/s 693 mmHg 90%
    23:00 +12°C° 0 mm 0 m/s 693 mmHg 90%

    27 Octombrie, Duminică

    Timp Temperatura Precipitaţii Vânt Presiune Umiditate
    00:00 +12°C° 0 mm 0 m/s 693 mmHg 89%
    01:00 +12°C° 0 mm 0 m/s 693 mmHg 89%
    02:00 +11°C° 0 mm 0 m/s 693 mmHg 89%
    03:00 +11°C° 0 mm 0 m/s 693 mmHg 89%
    04:00 +11°C° 0 mm 0 m/s 693 mmHg 89%
    05:00 +11°C° 0 mm 0 m/s 693 mmHg 88%
    06:00 +11°C° 0 mm 0 m/s 693 mmHg 88%
    07:00 +12°C° 0 mm 0 m/s 693 mmHg 84%
    08:00 +14°C° 0 mm 1 m/s 693 mmHg 80%
    09:00 +15°C° 0 mm 1 m/s 694 mmHg 75%
    10:00 +16°C° 0.1 mm 1 m/s 693 mmHg 72%
    11:00 +17°C° 0.1 mm 2 m/s 693 mmHg 69%
    12:00 +17°C° 0.1 mm 2 m/s 693 mmHg 66%
    13:00 +17°C° 0.2 mm 2 m/s 692 mmHg 67%
    14:00 +17°C° 0.2 mm 2 m/s 692 mmHg 69%
    15:00 +17°C° 0.2 mm 2 m/s 691 mmHg 70%
    16:00 +16°C° 0.1 mm 1 m/s 691 mmHg 73%
    17:00 +15°C° 0.1 mm 1 m/s 691 mmHg 77%
    18:00 +15°C° 0.1 mm 1 m/s 691 mmHg 80%
    19:00 +14°C° 0.2 mm 1 m/s 691 mmHg 81%
    20:00 +14°C° 0.2 mm 1 m/s 691 mmHg 81%
    21:00 +13°C° 0.2 mm 1 m/s 691 mmHg 82%
    22:00 +13°C° 0 mm 1 m/s 691 mmHg 83%
    23:00 +13°C° 0 mm 1 m/s 691 mmHg 83%

    28 Octombrie, Luni

    Timp Temperatura Precipitaţii Vânt Presiune Umiditate
    00:00 +11°C° 0 mm 0 m/s 691 mmHg 84%
    01:00 +11°C° 0 mm 0 m/s 690 mmHg 84%
    02:00 +11°C° 0 mm 0 m/s 690 mmHg 85%
    03:00 +10°C° 0 mm 0 m/s 690 mmHg 85%
    04:00 +10°C° 0 mm 0 m/s 690 mmHg 85%
    05:00 +11°C° 0 mm 1 m/s 690 mmHg 85%
    06:00 +11°C° 0 mm 1 m/s 690 mmHg 85%
    07:00 +12°C° 0 mm 1 m/s 690 mmHg 81%
    08:00 +14°C° 0 mm 1 m/s 691 mmHg 76%
    09:00 +15°C° 0 mm 1 m/s 691 mmHg 72%
    10:00 +15°C° 0 mm 1 m/s 691 mmHg 71%
    11:00 +16°C° 0 mm 2 m/s 691 mmHg 70%
    12:00 +16°C° 0 mm 2 m/s 691 mmHg 68%
    13:00 +16°C° 0.1 mm 2 m/s 690 mmHg 69%
    14:00 +16°C° 0.1 mm 2 m/s 690 mmHg 70%
    15:00 +16°C° 0.1 mm 1 m/s 690 mmHg 70%
    16:00 +15°C° 0 mm 1 m/s 690 mmHg 74%
    17:00 +15°C° 0 mm 1 m/s 690 mmHg 77%
    18:00 +13°C° 0 mm 0 m/s 690 mmHg 81%
    19:00 +13°C° 0.1 mm 0 m/s 691 mmHg 82%
    20:00 +13°C° 0.1 mm 1 m/s 691 mmHg 82%
    21:00 +13°C° 0.1 mm 1 m/s 691 mmHg 83%
    22:00 +13°C° 0.1 mm 1 m/s 691 mmHg 83%
    23:00 +12°C° 0.1 mm 1 m/s 691 mmHg 83%
    Arată mai mult